Weather Roundup
Issued by NWS Springfield, MO

Home | Current Version | Previous Version | Text Only | Print | Product List | Glossary On
Versions: 1 2 3 4 5 6 7 8 9 10 11 12 13 14 15 16 17 18 19 20 21 22 23 24 25 26 27 28 29 30 31 32 33 34 35 36 37 38 39 40 41 42 43 44 45 46 47 48 49 50
000
NZUS99 KSGF 190507
HRRSGF

HOURLY WEATHER
NATIONAL WEATHER SERVICE SPRINGFIELD MO
1200 AM CDT SAT APR 19 2014

......SGF CWA......

CITY           SKY/WX    TMP DP  RH WIND       PRES   REMARKS
SPRINGFIELD    CLEAR     56  40  55 SE5       30.19S
JOPLIN         CLEAR     55  41  59 E6        30.18S
WEST PLAINS    CLEAR     52  41  66 CALM      30.24R
ROLLA          CLEAR     54  40  59 SE7       30.23R
OSAGE BEACH    CLEAR     57  37  47 E5        30.23S
BRANSON        CLEAR     59  39  47 SE10      30.22R

......SURROUNDING SGF CWA......

CITY           SKY/WX    TMP DP  RH WIND       PRES   REMARKS
CHANUTE        CLEAR     48  41  76 SE3       30.17S HAZE
PARSONS        CLEAR     47  37  68 CALM      30.17F
COFFEYVILLE    CLEAR     50  40  68 CALM      30.16S
EMPORIA        CLEAR     53  40  61 SE8       30.14F
GROVE OK       CLEAR     54  45  71 CALM      30.18F
ROGERS AR      PTCLDY    59  42  53 SE5       30.21S
SILOAM SPRINGS CLEAR     55  39  54 E6        30.20S
HARRISON AR    CLEAR     57  40  52 S3        30.23R
NEAR YELLVILLE CLEAR     59  37  44 CALM      30.21S

......KANSAS AND MISSOURI......

CITY           SKY/WX    TMP DP  RH WIND       PRES   REMARKS
KANSAS CTY INT PTCLDY    53  42  66 SE10      30.18S
DOWNTOWN KC    PTCLDY    60  42  51 SE9       30.17S
SEDALIA        CLEAR     54  42  64 SE8       30.21S
ST JOSEPH      PTCLDY    55  41  59 SE8       30.16S
ST LOUIS       CLEAR     59  40  49 CALM      30.25S
SPIRIT OF STL  CLEAR     48  41  76 CALM      30.24S
KIRKSVILLE     CLEAR     50  34  54 E7        30.23S
WICHITA        PTCLDY    57  39  51 SE12      30.12S
TOPEKA         MOCLDY    54  42  64 SE5       30.16S
OLATHE         CLEAR     55  41  59 SE6       30.18S

......TENNESSEE......

CITY           SKY/WX    TMP DP  RH WIND       PRES   REMARKS
MEMPHIS        PTCLDY    60  51  72 S3        30.18S
NASHVILLE      MOCLDY    56  47  71 CALM      30.18F

......ARKANSAS.......

CITY           SKY/WX    TMP DP  RH WIND       PRES   REMARKS
FAYETTEVILLE   CLOUDY    55  47  74 CALM      30.20S
FT SMITH       CLEAR     59  45  59 NE5       30.18S
LITTLE ROCK    CLEAR     58  50  75 W3        30.20R

......OKLAHOMA.......

CITY           SKY/WX    TMP DP  RH WIND       PRES   REMARKS
TULSA          CLEAR     60  44  55 SE5       30.14S
PONCA CITY     CLEAR     57  39  51 SE9       30.13S
MCALESTER      MOCLDY    61  43  51 SE3       30.16S
OKLAHOMA CITY  MOCLDY    55  43  63 S5        30.14R

......IOWA............

CITY           SKY/WX    TMP DP  RH WIND       PRES   REMARKS
DES MOINES     MOCLDY    54  34  46 SE13      30.18S
QUAD CITIES    PTCLDY    47  36  65 E14       30.29R

......ILLINOIS........

CITY           SKY/WX    TMP DP  RH WIND       PRES   REMARKS
QUINCY         CLEAR     53  28  38 E8        30.25R
CHICAGO        CLEAR     38  25  59 VRB7      30.37S WCI  33




USA.gov is the U.S. government's official web portal to all federal, state and local government web resources and services.